Dewpoint
21 22 22 20 22 24 14 13 16 14 15 16 22 22 22 19 26 25 23 26 24 24 28 28 28 31 31 31 31 30 31 32 33 33 32 32 33 34 34 34 33 33 32 31
9 16 13 10 14 22 23 13 8 3 10 16 10 21 24 27 27 23 23 18 25 26 24 26 28 30 31 31 31 31 30 29 31 32 32 33 33 33 33 33 33 32 31 31
-1 9 3 -6 4 17 20 15 14 15 18 21 22 24 25 26 27 21 13 11 15 25 27 28 25 28 30 30 31 30 28 28 29 30 30 30 31 30 30 30 31 31 31 30
1 4 -16 6 4 10 12 11 9 9 15 22 23 23 12 6 15 9 10 17 20 24 23 24 24 26 30 30 30 30 29 28 30 30 29 29 29 30 30 30 31 31 32 33
1 -1 -2 4 14 13 12 10 13 13 19 21 19 16 21 20 12 15 12 8 8 6 10 16 23 21 23 29 29 28 29 30 31 31 31 30 29 29 30 30 31 31 31 31
4 -7 -9 -1 18 18 14 7 14 14 18 21 16 12 16 17 11 6 5 4 9 11 6 8 18 21 23 26 28 27 28 29 30 31 31 31 30 29 30 31 30 30 30 31
8 -2 3 7 20 16 2 4 19 22 23 20 8 10 17 14 9 5 3 2 5 5 7 13 22 23 25 25 26 28 28 29 29 29 30 31 30 30 29 29 29 29 29 28
7 -2 -1 18 17 11 15 19 18 16 10 13 18 17 13 10 3 -1 -1 -1 -0 -0 2 6 11 16 21 25 23 25 26 27 27 28 28 29 29 28 28 28 27 26 27 26
8 7 16 17 17 18 18 20 20 20 20 19 17 15 14 8 -0 -5 -7 -8 -10 -9 -4 -0 2 7 8 12 16 17 22 24 25 27 28 28 27 26 26 26 26 24 24 24
9 12 15 16 16 16 18 18 18 20 16 13 10 12 10 9 5 -3 -7 -6 -13 -11 -8 -5 -3 -0 2 9 12 15 19 24 24 25 26 26 27 26 25 24 24 24 24 23
8 7 11 12 14 14 14 13 11 10 10 10 10 8 7 6 5 -4 -8 -12 -15 -15 -12 -8 -6 -4 -2 5 9 12 16 20 22 25 24 25 26 25 25 25 25 24 24 25
7 5 4 8 12 13 12 10 9 8 6 5 5 5 5 3 5 -4 -11 -12 -12 -12 -13 -7 -6 -5 -3 -1 5 8 12 14 18 22 22 23 23 23 28 28 29 30 29 27
3 7 7 9 10 11 8 7 6 4 3 0 0 -1 2 -4 -1 5 -11 -14 -13 -11 -11 -11 -7 -6 -4 -2 1 6 7 12 16 17 19 20 21 20 20 23 29 29 31 30
7 5 7 8 6 8 8 8 7 0 -2 -5 -7 -2 -2 -3 -5 -8 -12 -14 -12 -14 -14 -16 -14 -7 -4 -4 -2 -0 5 14 14 14 16 18 19 20 20 20 20 22 28 30
3 4 3 5 6 5 5 3 1 -5 -10 -11 -9 -9 -11 -8 -11 -14 -15 -9 -7 -13 -14 -14 -13 -6 -5 -5 -2 -0 6 10 15 15 15 17 19 19 19 20 20 20 21 24
2 2 3 3 2 -0 -3 -6 -8 -13 -16 -17 -15 -14 -15 -14 -12 -13 -15 -15 -10 -9 -9 -17 -10 -6 -11 -11 -6 -1 2 14 16 13 14 15 17 18 19 19 19 19 18 19
-5 -4 -2 -3 -5 -10 -11 -13 -12 -11 -15 -18 -17 -19 -18 -16 -14 -14 -14 -18 -16 -13 -13 -16 -8 -3 -12 -14 -12 -3 -2 3 13 11 11 12 14 15 17 19 18 18 18 20
-10 -13 -13 -11 -9 -12 -14 -18 -18 -16 -14 -14 -18 -21 -19 -18 -16 -17 -17 -19 -12 -9 -6 -8 -8 0 -3 -9 -4 -5 -4 -2 5 8 10 12 9 11 13 14 15 17 18 19
-14 -11 -14 -12 -14 -12 -13 -13 -12 -14 -17 -20 -18 -16 -18 -18 -19 -17 -21 -14 -13 -10 -9 -3 3 4 2 -1 5 6 -0 0 2 2 6 8 6 6 8 8 8 9 10 11
-12 -14 -14 -14 -13 -11 -13 -18 -18 -15 -14 -12 -11 -11 -10 -10 -13 -11 -14 -12 -12 -11 -6 -3 -1 5 3 -0 6 4 -3 -2 -4 -5 2 -1 2 3 3 6 6 6 6 7
-11 -11 -9 -6 -8 -8 -8 -12 -12 -12 -13 -13 -11 -11 -11 -9 -7 -7 -9 -8 -6 -4 -1 4 2 2 2 4 6 1 0 -7 -10 -10 -9 -9 -9 -8 -6 -4 -3 -1 0 1
-5 -3 -2 -3 -8 -10 -11 -13 -12 -11 -12 -12 -11 -10 -9 -8 -5 -5 -5 -7 -4 5 1 0 -1 4 5 10 -1 -5 -9 -11 -16 -21 -21 -19 -17 -16 -15 -14 -13 -10 -10 -9
-1 -3 -5 -7 -9 -11 -15 -15 -13 -11 -11 -10 -8 -7 -8 -6 -6 -8 -8 -6 -2 1 1 1 5 7 10 -3 -2 -5 -8 -14 -15 -18 -19 -21 -19 -20 -20 -17 -16 -15 -16 -14
-8 -8 -8 -8 -13 -13 -12 -11 -12 -12 -11 -9 -7 -6 -6 -8 -7 -6 -5 2 6 2 -1 0 4 8 10 -3 0 -3 -11 -15 -18 -20 -23 -2 -21 -25 -26 -22 -20 -17 -20 -12
-10 -11 -12 -13 -11 -9 -10 -9 -13 -12 -10 -10 -8 -7 -6 -6 -7 -7 -6 -4 3 2 -2 3 5 6 4 1 -9 -14 -15 -17 -19 -22 -20 -20 -18 -21 -20 -20 -19 -16 -17 -17
-13 -12 -10 -9 -8 -7 -8 -9 -10 -9 -9 -9 -8 -7 -7 -6 -6 -1 -3 -0 -4 1 -1 -1 -1 -2 -3 -7 -12 -14 -14 -16 -7 -12 -11 -13 -15 -16 -16 -16 -16 -14 -14 -12
-10 1 -10 -7 -6 -7 -7 -8 -11 -9 -6 -5 -5 -4 -4 -4 -4 -1 2 -4 -5 -6 -5 -4 -2 0 -6 -9 -9 -9 -9 -11 -3 -13 -13 -12 -13 -13 -13 -13 -13 -12 -13 -13
Lifted_Index
5 5 5 5 5 5 5 4 4 4 4 5 6 7 7 8 8 7 7 7 8 9 10 11 13 14 14 14 14 13 12 11 11 10 10 10 10 10 10 10 9 9 9 8
4 5 5 5 5 5 5 4 4 4 4 6 7 7 8 8 8 8 8 8 8 10 11 12 13 13 14 14 14 14 13 12 11 11 11 11 10 10 10 10 9 9 8 8
4 4 4 4 5 5 4 4 4 4 5 6 7 8 8 8 8 8 8 9 9 11 12 12 13 13 14 14 14 14 14 13 12 12 11 11 11 11 10 10 9 9 8 8
3 3 3 4 5 4 4 4 4 4 5 6 7 8 9 9 9 9 9 10 11 11 12 13 13 14 14 13 13 13 13 13 13 13 12 11 11 10 10 10 9 8 8 8
2 2 3 4 5 5 4 4 5 5 6 7 8 8 9 9 10 10 10 11 11 12 13 13 13 13 13 13 13 13 13 13 13 13 12 11 11 10 10 9 9 8 8 7
2 2 3 4 5 6 5 4 5 6 7 7 8 8 9 9 10 10 11 11 12 12 12 12 13 12 12 12 12 12 12 12 12 12 11 11 10 9 9 9 8 8 7 7
3 2 3 5 6 6 5 5 7 8 8 8 8 9 9 9 10 10 11 11 11 11 11 11 12 12 11 11 11 11 11 11 11 10 10 9 9 9 9 8 8 8 7 7
3 3 4 6 7 7 7 7 8 9 9 9 9 9 9 9 9 9 10 10 10 10 10 11 11 11 10 10 10 10 10 10 9 9 9 9 9 9 9 8 8 7 7 6
5 5 6 7 8 8 8 9 9 9 9 9 9 8 8 8 8 9 9 9 9 9 10 10 10 10 10 9 9 9 9 8 8 8 8 8 9 8 8 8 7 7 6 6
6 7 8 8 9 9 9 9 9 9 8 8 8 8 8 8 8 8 9 9 9 9 9 9 9 9 9 9 9 8 8 8 8 8 8 8 8 8 7 7 6 6 5 5
7 8 8 9 9 9 9 8 8 8 8 8 7 7 8 8 8 8 9 9 9 9 9 9 9 9 9 9 9 8 8 8 8 7 7 7 7 7 7 6 6 5 5 5
8 8 9 9 9 9 9 8 8 8 8 8 8 8 8 8 9 9 9 9 9 9 9 9 9 9 10 10 9 8 8 8 7 7 7 6 7 7 7 6 6 6 6 6
8 9 9 9 9 9 9 8 8 8 8 8 8 9 9 9 9 10 10 10 10 10 11 11 11 11 11 11 10 9 8 8 7 7 7 6 6 6 6 6 6 6 6 7
9 9 8 9 9 9 9 9 9 9 9 9 9 9 10 10 10 11 11 12 12 12 12 12 12 12 12 12 11 10 9 8 8 7 7 7 7 7 6 6 6 6 7 7
8 8 8 8 9 9 9 9 9 9 9 9 10 10 10 10 11 11 12 13 13 13 13 13 13 13 13 13 12 11 10 9 9 8 8 8 8 8 7 7 6 6 7 7
8 8 8 8 9 9 9 9 9 9 9 10 10 11 11 12 12 12 13 14 13 13 13 14 14 14 14 14 13 12 11 11 10 10 9 9 9 9 8 8 8 8 8 8
8 8 9 9 9 9 9 9 9 9 10 10 11 12 12 12 12 13 13 14 14 14 14 14 14 15 15 14 14 13 12 11 11 11 10 10 10 10 10 9 9 9 9 9
9 9 10 10 10 9 9 10 10 10 11 11 12 12 12 12 12 12 13 13 13 13 14 14 15 15 14 14 14 13 12 12 12 11 11 11 11 11 11 10 10 10 10 10
10 10 10 10 10 10 10 10 11 11 12 12 12 12 12 12 12 13 13 13 13 13 13 14 14 14 14 14 13 13 13 12 12 12 12 12 12 12 12 12 11 11 11 11
10 10 10 11 11 11 11 11 12 12 12 13 12 12 12 12 12 12 12 12 12 13 13 14 14 13 13 13 13 13 12 13 13 13 13 13 14 14 13 13 13 13 12 12
10 10 10 10 11 11 12 12 12 12 12 13 12 12 12 12 12 12 11 11 12 13 13 13 13 13 13 12 12 12 12 13 13 14 14 14 14 15 15 14 14 14 14 13
10 10 10 10 10 11 12 12 12 12 12 12 12 12 11 11 11 11 11 11 12 13 13 13 13 13 12 12 12 12 12 13 13 14 14 15 15 15 15 15 15 15 15 15
9 10 10 10 11 11 12 12 12 12 12 12 12 12 11 11 11 11 11 11 12 12 13 13 13 12 12 11 12 12 12 13 13 14 14 14 15 15 15 15 15 15 16 16
9 10 10 11 11 11 11 12 12 12 12 12 12 12 12 11 11 11 11 12 12 12 13 13 12 12 12 12 12 12 12 13 13 14 14 14 14 14 15 15 15 15 16 16
10 10 10 11 11 11 11 11 11 12 12 12 12 12 12 11 11 11 11 12 12 12 13 13 13 12 12 12 12 12 13 13 13 13 14 14 14 14 14 15 15 15 16 16
10 10 10 11 11 11 11 11 10 11 11 11 11 11 12 12 11 11 11 11 12 12 12 13 13 13 13 13 13 13 13 13 13 14 14 14 14 14 14 15 15 15 16 16
10 10 10 11 11 11 11 10 10 10 10 10 10 11 11 12 12 11 11 11 12 12 12 12 13 13 13 13 13 13 13 13 14 14 14 14 14 14 14 14 15 15 15 16